TimeCST,TemperatureF,Dew PointF,Humidity,Sea Level PressureIn,VisibilityMPH,Wind Direction,Wind SpeedMPH,Gust SpeedMPH,PrecipitationIn,Events,Conditions,WindDirDegrees,DateUTC
12:52 AM,21.9,18.0,85,29.91,10.0,West,5.8,-,N/A,,Overcast,280,2013-02-22 06:52:00
1:16 AM,21.2,17.6,86,29.87,10.0,Variable,4.6,-,N/A,,Overcast,0,2013-02-22 07:16:00
1:52 AM,21.2,17.6,86,29.87,10.0,WNW,3.5,-,N/A,,Mostly Cloudy,290,2013-02-22 07:52:00
2:04 AM,21.2,17.6,86,29.87,10.0,WNW,3.5,-,N/A,,Partly Cloudy,300,2013-02-22 08:04:00
2:35 AM,19.4,15.8,86,29.87,10.0,WNW,5.8,-,N/A,,Mostly Cloudy,290,2013-02-22 08:35:00
2:42 AM,19.4,15.8,86,29.87,9.0,West,6.9,-,N/A,,Overcast,280,2013-02-22 08:42:00
2:52 AM,19.9,16.0,85,29.92,10.0,West,6.9,-,N/A,,Overcast,280,2013-02-22 08:52:00
3:21 AM,19.4,14.0,80,29.88,10.0,WNW,4.6,-,N/A,,Mostly Cloudy,290,2013-02-22 09:21:00
3:35 AM,17.6,12.2,79,29.89,10.0,West,5.8,-,N/A,,Scattered Clouds,260,2013-02-22 09:35:00
3:52 AM,16.0,12.0,84,29.95,10.0,WSW,5.8,-,N/A,,Clear,240,2013-02-22 09:52:00
4:52 AM,17.1,12.9,84,29.97,10.0,West,6.9,-,N/A,,Mostly Cloudy,260,2013-02-22 10:52:00
5:10 AM,15.8,12.2,86,29.93,10.0,WSW,6.9,-,N/A,,Scattered Clouds,250,2013-02-22 11:10:00
5:52 AM,12.2,10.4,92,29.94,10.0,WSW,10.4,-,N/A,,Clear,240,2013-02-22 11:52:00
6:52 AM,12.9,9.0,84,30.01,10.0,West,6.9,-,N/A,,Clear,270,2013-02-22 12:52:00
7:52 AM,15.1,10.0,80,30.04,10.0,Variable,4.6,16.1,N/A,,Clear,0,2013-02-22 13:52:00
8:52 AM,19.0,12.0,74,30.06,10.0,West,6.9,-,N/A,,Clear,280,2013-02-22 14:52:00
9:52 AM,21.0,12.9,71,30.08,10.0,West,8.1,-,N/A,,Clear,280,2013-02-22 15:52:00
10:52 AM,23.0,12.9,65,30.11,10.0,Variable,6.9,-,N/A,,Clear,0,2013-02-22 16:52:00
11:52 AM,25.0,14.0,63,30.12,10.0,WNW,6.9,-,N/A,,Clear,300,2013-02-22 17:52:00
12:52 PM,25.0,14.0,63,30.12,10.0,West,10.4,-,N/A,,Clear,270,2013-02-22 18:52:00
1:52 PM,27.0,14.0,58,30.11,10.0,Variable,3.5,-,N/A,,Clear,0,2013-02-22 19:52:00
2:52 PM,27.0,15.1,61,30.09,10.0,West,9.2,-,N/A,,Clear,270,2013-02-22 20:52:00
3:52 PM,27.0,15.1,61,30.10,10.0,West,8.1,-,N/A,,Clear,280,2013-02-22 21:52:00
4:52 PM,27.0,15.1,61,30.10,10.0,West,6.9,-,N/A,,Clear,280,2013-02-22 22:52:00
5:52 PM,25.0,15.1,66,30.11,10.0,West,6.9,-,N/A,,Clear,270,2013-02-22 23:52:00
6:52 PM,21.9,14.0,72,30.12,10.0,West,4.6,-,N/A,,Clear,260,2013-02-23 00:52:00
7:52 PM,19.9,12.9,74,30.13,10.0,WSW,4.6,-,N/A,,Clear,250,2013-02-23 01:52:00
8:52 PM,12.9,9.0,84,30.15,10.0,Calm,Calm,-,N/A,,Clear,0,2013-02-23 02:52:00
9:52 PM,12.0,7.0,80,30.14,10.0,Calm,Calm,-,N/A,,Clear,0,2013-02-23 03:52:00
10:52 PM,14.0,10.0,84,30.14,9.0,WSW,5.8,-,N/A,,Clear,240,2013-02-23 04:52:00
11:52 PM,-9999,-9999,N/A,30.08,6.0,Calm,Calm,-,N/A,,Haze,0,2013-02-23 05:52:00